Regional Weather Roundup
Issued by NWS

Home | Current Version | Previous Version | Text Only | Print | Product List | Glossary Off
Versions: 1 2 3 4 5 6 7 8 9 10 11 12 13 14 15 16 17 18 19 20 21 22 23 24 25 26 27 28 29 30 31 32 33 34 35 36 37 38 39 40 41 42 43 44 45 46 47 48 49 50

000
ASUS43 KMKX 041021
RWRWI

WISCONSIN REGIONAL WEATHER ROUNDUP
NATIONAL WEATHER SERVICE MILWAUKEE/SULLIVAN WI
500 AM CDT MON MAY 04 2015

NOTE: "FAIR" INDICATES FEW OR NO CLOUDS BELOW 12,000 FEET WITH NO
SIGNIFICANT WEATHER AND/OR OBSTRUCTIONS TO VISIBILITY.

WIZ001-002-006>008-014>016-023>028-041100-
NORTHWEST WISCONSIN

CITY           SKY/WX    TMP DP  RH WIND       PRES   REMARKS
SUPERIOR ARPT  CLEAR     47  35  63 CALM      30.07R
ASHLAND        CLEAR     41  34  76 S3        30.04R
HAYWARD        CLEAR     39  36  89 CALM      30.05R
SIREN          CLEAR     43  33  67 CALM      30.06R
CUMBERLAND     CLEAR     46  32  57 N8        30.03R
RICE LAKE      CLEAR     51  35  53 N8        30.04R
CHETEK         CLEAR     50  41  72 NW3       30.02R
LADYSMITH      CLEAR     51  40  67 N10       30.03R
EAU CLAIRE     CLEAR     53  42  66 N8        30.00R
MENOMONIE      CLEAR     53  40  63 N12       30.02R
NEW RICHMOND   CLEAR     49  35  60 N5        30.04R
OSCEOLA        CLEAR     48  37  64 N6        30.07R
$$

WIZ003>005-009-010-017-018-041100-
NORTH CENTRAL WISCONSIN

CITY           SKY/WX    TMP DP  RH WIND       PRES   REMARKS
MANITOWISH WTR PTCLDY    48  36  62 N6        29.98S
ARBOR VITAE    CLEAR     52  41  65 N10       29.98R
WOODRUFF       CLEAR     52  41  65 N10       29.98R
RHINELANDER    CLEAR     50  44  80 N3        29.97R
EAGLE RIVER    PTCLDY    50  40  69 N8        29.96R
LAND O LAKES   PTCLDY    49  39  67 N7        29.97R
PHILLIPS       CLEAR     47  40  76 NW7       29.99R
TOMAHAWK       PTCLDY    45  44  96 NW6       29.98R
MEDFORD        CLEAR     49  45  85 N8        29.98R
MERRILL        PTCLDY    50  47  89 NW3       29.96R
$$

WIZ029-030-035-036-043>047-041100-
CENTRAL WISCONSIN

CITY           SKY/WX    TMP DP  RH WIND       PRES   REMARKS
WAUSAU         MOCLDY    53  50  89 NW3       29.95R
MOSINEE        MOCLDY    52  52 100 CALM      29.97R
MARSHFIELD     PTCLDY    53  52  96 N6        29.97R
STEVENS POINT  MOCLDY    53  53  99 NW5       29.97R FOG
WAUPACA        CLOUDY    58  57  97 NW5       29.94R
WAUTOMA        CLOUDY    56  56 100 W6        29.95R
WISC RAPIDS    MOCLDY    54  52  93 CALM      29.97R FOG
CAMP DOUGLAS   CLOUDY    57  57 100 NW7       29.96R
$$

WIZ011>013-019>022-031-037>040-048>050-041100-
NORTHEAST WISCONSIN

CITY           SKY/WX    TMP DP  RH WIND       PRES   REMARKS
ANTIGO         FOG       48  48 100 CALM      29.96R VSB 1
SHAWANO        CLOUDY    57  56  94 NW6       29.93R
OCONTO         CLOUDY    58  58 100 NW6       29.91R
STURGEON BAY   CLOUDY    57  52  82 NW10      29.94R
GREEN BAY      CLOUDY    58  56  93 NW8       29.91R
MANITOWOC      CLOUDY    57  55  94 W3        29.90R
APPLETON       CLOUDY    55  55 100 NW9       29.93R
CLINTONVILLE   CLOUDY    55  55 100 NW6       29.93R
OSHKOSH        CLOUDY    57  55  93 W7        29.92R
$$

WIZ032>034-041-042-053>061-041100-
SOUTHWEST WISCONSIN

CITY           SKY/WX    TMP DP  RH WIND       PRES   REMARKS
LA CROSSE      MOCLDY    60  57  89 NW8       29.98R
SPARTA         CLOUDY    57  56  96 CALM      29.97S
VIROQUA        CLOUDY    57  57 100 W3        30.00R
BOSCOBEL       CLOUDY    58  56  93 CALM      29.99R
PRAIRIE DU CHI CLOUDY    57  56  95 NW5       29.97R
PLATTEVILLE    CLOUDY    56  55  97 W6        29.96R
$$

WIZ056-057-062-063-064-067-068-041100-
SOUTH CENTRAL WISCONSIN

CITY           SKY/WX    TMP DP  RH WIND       PRES   REMARKS
REEDSBURG      CLOUDY    56  56  98 CALM      29.95R
BARABOO/DELLS  NOT AVBL
LONE ROCK      CLOUDY    58  56  93 NW8       29.97R
MINERAL POINT  CLOUDY    55  54  94 W5        29.96R
MADISON        CLOUDY    56  54  93 N7        29.94R FOG
MIDDLETON      CLOUDY    56  56  97 N8        29.95R
WATERTOWN      CLOUDY    56  56 100 CALM      29.91R
MONROE         CLOUDY    57  55  94 CALM      29.93R
JANESVILLE     FOG       54  54 100 NW3       29.91R VSB 1/4
$$

WIZ051-052-058>065-066-070>072-041100-
SOUTHEAST WISCONSIN

CITY           SKY/WX    TMP DP  RH WIND       PRES   REMARKS
MILWAUKEE      CLOUDY    61  53  75 NW6       29.89S
WAUKESHA       CLOUDY    54  52  94 CALM      29.92R
MILWAUKEE/TIMM CLOUDY    57  54  88 CALM      29.91R
RACINE         CLOUDY    61  53  75 W3        29.90S
BURLINGTON     CLOUDY    54  53  98 W3        29.91R FOG
KENOSHA        CLOUDY    59  55  87 NW3       29.89F
FOND DU LAC    CLOUDY    58  55  90 W8        29.92R
SHEBOYGAN      CLOUDY    57  56  96 SW3       29.91R FOG
WEST BEND      CLOUDY    59  55  88 SW3       29.89R
JUNEAU         CLOUDY    57  56  97 NW9       29.94R
$$

LSZ147-162-041100-
LAKE SUPERIOR

STATION/POSITION TIME  TEMP    WIND        PRES    WAVE
                       AIR SEA DIR/SP/G            HT/PER
                 (UTC) (F)     (DEG/KT/KT) (MB)    (FT/S)
W MID LAKE BUOY  0950   40 35  300/  6/  6 1016.3R   1
DEVILS ISLAND    1000   46     260/  6/  7 1017.3R
PORT WING        0900   40     180/  3/  4 1017.3R
SAXON HARBOR     0900   49     320/  6/  9 1015.9
$$

LMZ867-665-643>646-041100-
LAKE MICHIGAN

STATION/POSITION TIME  TEMP    WIND        PRES    WAVE
                       AIR SEA DIR/SP/G            HT/PER
                 (UTC) (F)     (DEG/KT/KT) (MB)    (FT/S)
CHAMBERS ISLAND  0900   56     170/  2/  4 1011.9S
NORTHPORT PIER   0900   57     170/  2/  6 1011.5S
KEWAUNEE LAKESHO 0900   54     170/ 12/ 15 1011.4R
SHEBOYGAN LAKESH 1000   55     310/ 13/ 15 1012.8R
PORT WASHINGTON  0940   54     190/  3/  4 1012.2F
ATWATER BUOY     1000   51     290/  4/  6 1013.5R
MILWAUKEE LAKESH 1000   59     340/  3/  4   N/A
KENOSHA   LAKESH 1000   63     270/  4/  5 1012.2F
$$

TC  - TEMPERATURE IN CELSIUS
VSB - VISIBILITY IN STATUTE MILES
WCI - WIND CHILL INDEX
HX  - HEAT INDEX



USA.gov is the U.S. government's official web portal to all federal, state and local government web resources and services.